When you browse on this site, cookies collect data to enhance your experience and personalize the content and advertising you see.
Visit our Privacy Policy to learn more. By continuing to use the site, you agree to this use of cookies and data.
  • In Hungary
  • List of Countries
  • For 7 days
  • Water Temperature
  • Satellite Maps
  • Weather Map
  • News
  • Weather Widgets
  • user-avatar
    Login

    Hourly Weather Mława

    Today, 20 February, Wednesday

    Time Temperature Precipitation Wind Pressure Humidity
    00:00 +2°C° 0 mm 5 mps 745 mmHg 90%
    01:00 +1°C° 0 mm 4 mps 745 mmHg 91%
    02:00 +1°C° 0 mm 5 mps 745 mmHg 91%
    03:00 +1°C° 0 mm 5 mps 745 mmHg 91%
    04:00 +1°C° 0 mm 6 mps 745 mmHg 91%
    05:00 +1°C° 0 mm 6 mps 745 mmHg 90%
    06:00 +1°C° 0 mm 6 mps 745 mmHg 88%
    07:00 +1°C° 0 mm 6 mps 746 mmHg 86%
    08:00 0°C° 0.1 mm 7 mps 746 mmHg 83%
    09:00 +2°C° 0.1 mm 7 mps 746 mmHg 80%
    10:00 +1°C° 0.1 mm 8 mps 747 mmHg 77%
    11:00 +1°C° 0.1 mm 8 mps 747 mmHg 75%
    12:00 +2°C° 0.1 mm 8 mps 747 mmHg 73%
    13:00 +2°C° 0.1 mm 8 mps 748 mmHg 71%
    14:00 +3°C° 0 mm 7 mps 748 mmHg 70%
    15:00 +3°C° 0 mm 7 mps 748 mmHg 70%
    16:00 +3°C° 0 mm 6 mps 749 mmHg 69%
    17:00 +3°C° 0 mm 6 mps 749 mmHg 73%
    18:00 +2°C° 0 mm 5 mps 749 mmHg 76%
    19:00 +2°C° 0 mm 5 mps 750 mmHg 79%
    20:00 +1°C° 0 mm 5 mps 750 mmHg 82%
    21:00 +1°C° 0 mm 4 mps 751 mmHg 86%
    22:00 +1°C° 0 mm 3 mps 751 mmHg 89%
    23:00 +1°C° 0 mm 3 mps 751 mmHg 90%

    Tomorrow, 21 February, Thursday

    Time Temperature Precipitation Wind Pressure Humidity
    00:00 +1°C° 0 mm 3 mps 752 mmHg 91%
    01:00 +1°C° 0 mm 2 mps 752 mmHg 92%
    02:00 +1°C° 0 mm 2 mps 752 mmHg 92%
    03:00 +1°C° 0 mm 2 mps 752 mmHg 93%
    04:00 +1°C° 0 mm 2 mps 752 mmHg 93%
    05:00 +2°C° 0.1 mm 1 mps 752 mmHg 95%
    06:00 +3°C° 0.1 mm 1 mps 752 mmHg 96%
    07:00 +3°C° 0.1 mm 1 mps 752 mmHg 97%
    08:00 +2°C° 0.5 mm 2 mps 752 mmHg 97%
    09:00 +2°C° 0.5 mm 2 mps 751 mmHg 97%
    10:00 +3°C° 0.5 mm 2 mps 751 mmHg 97%
    11:00 +3°C° 1 mm 2 mps 751 mmHg 97%
    12:00 +3°C° 1 mm 2 mps 751 mmHg 96%
    13:00 +3°C° 1 mm 2 mps 750 mmHg 96%
    14:00 +3°C° 0.7 mm 3 mps 750 mmHg 96%
    15:00 +3°C° 0.7 mm 3 mps 749 mmHg 96%
    16:00 +3°C° 0.7 mm 3 mps 749 mmHg 96%
    17:00 +3°C° 0.6 mm 3 mps 749 mmHg 96%
    18:00 +3°C° 0.6 mm 3 mps 749 mmHg 96%
    19:00 +3°C° 0.6 mm 4 mps 749 mmHg 95%
    20:00 +3°C° 0.5 mm 3 mps 749 mmHg 96%
    21:00 +3°C° 0.5 mm 3 mps 749 mmHg 97%
    22:00 +3°C° 0.5 mm 2 mps 749 mmHg 97%
    23:00 0°C° 0.4 mm 4 mps 749 mmHg 94%

    Day after tomorrow, 22 February, Friday

    Time Temperature Precipitation Wind Pressure Humidity
    00:00 -1°C° 0.4 mm 5 mps 750 mmHg 92%
    01:00 -3°C° 0.4 mm 7 mps 750 mmHg 89%
    02:00 -4°C° 0.1 mm 7 mps 751 mmHg 85%
    03:00 -4°C° 0.1 mm 7 mps 752 mmHg 81%
    04:00 -6°C° 0.1 mm 7 mps 753 mmHg 77%
    05:00 -5°C° 0 mm 6 mps 754 mmHg 75%
    06:00 -6°C° 0 mm 6 mps 756 mmHg 72%
    07:00 -6°C° 0 mm 6 mps 757 mmHg 70%
    08:00 -6°C° 0 mm 6 mps 758 mmHg 66%
    09:00 -6°C° 0 mm 6 mps 759 mmHg 61%
    10:00 -6°C° 0 mm 6 mps 760 mmHg 57%
    11:00 -5°C° 0 mm 6 mps 761 mmHg 55%
    12:00 -5°C° 0 mm 6 mps 762 mmHg 54%
    13:00 -5°C° 0 mm 5 mps 762 mmHg 52%
    14:00 -5°C° 0 mm 5 mps 763 mmHg 52%
    15:00 -5°C° 0 mm 5 mps 763 mmHg 52%
    16:00 -6°C° 0 mm 5 mps 763 mmHg 52%
    17:00 -6°C° 0 mm 5 mps 764 mmHg 53%
    18:00 -7°C° 0 mm 4 mps 765 mmHg 53%
    19:00 -7°C° 0 mm 4 mps 765 mmHg 54%
    20:00 -7°C° 0 mm 4 mps 766 mmHg 51%
    21:00 -7°C° 0 mm 4 mps 766 mmHg 48%
    22:00 -7°C° 0 mm 4 mps 766 mmHg 44%
    23:00 -7°C° 0 mm 4 mps 767 mmHg 45%

    23 February, Saturday

    Time Temperature Precipitation Wind Pressure Humidity
    00:00 -7°C° 0 mm 4 mps 767 mmHg 47%
    01:00 -8°C° 0 mm 4 mps 767 mmHg 48%
    02:00 -7°C° 0 mm 3 mps 767 mmHg 50%
    03:00 -7°C° 0 mm 3 mps 767 mmHg 52%
    04:00 -6°C° 0 mm 2 mps 767 mmHg 54%
    05:00 -7°C° 0 mm 2 mps 767 mmHg 55%
    06:00 -7°C° 0 mm 2 mps 767 mmHg 57%
    07:00 -7°C° 0 mm 2 mps 768 mmHg 58%
    08:00 -6°C° 0 mm 2 mps 768 mmHg 53%
    09:00 -5°C° 0 mm 2 mps 768 mmHg 49%
    10:00 -4°C° 0 mm 2 mps 768 mmHg 44%
    11:00 -4°C° 0 mm 2 mps 768 mmHg 41%
    12:00 -3°C° 0 mm 2 mps 768 mmHg 37%
    13:00 -2°C° 0 mm 2 mps 768 mmHg 34%
    14:00 -2°C° 0 mm 2 mps 767 mmHg 35%
    15:00 -2°C° 0 mm 2 mps 767 mmHg 36%
    16:00 -2°C° 0 mm 2 mps 767 mmHg 37%
    17:00 -2°C° 0 mm 2 mps 767 mmHg 40%
    18:00 -3°C° 0 mm 2 mps 766 mmHg 42%
    19:00 -1°C° 0 mm 1 mps 766 mmHg 45%
    20:00 -1°C° 0 mm 1 mps 766 mmHg 44%
    21:00 0°C° 0 mm 1 mps 766 mmHg 43%
    22:00 0°C° 0 mm 1 mps 766 mmHg 41%
    23:00 -2°C° 0 mm 2 mps 766 mmHg 41%

    24 February, Sunday

    Time Temperature Precipitation Wind Pressure Humidity
    00:00 -2°C° 0 mm 2 mps 766 mmHg 41%
    01:00 -2°C° 0 mm 2 mps 765 mmHg 41%
    02:00 -2°C° 0 mm 3 mps 765 mmHg 42%
    03:00 -2°C° 0 mm 3 mps 765 mmHg 43%
    04:00 -2°C° 0 mm 3 mps 764 mmHg 44%
    05:00 -2°C° 0 mm 3 mps 764 mmHg 47%
    06:00 -4°C° 0 mm 3 mps 764 mmHg 51%
    07:00 -3°C° 0 mm 2 mps 764 mmHg 54%
    08:00 -2°C° 0 mm 2 mps 764 mmHg 53%
    09:00 -1°C° 0 mm 3 mps 764 mmHg 53%
    10:00 0°C° 0 mm 3 mps 764 mmHg 52%
    11:00 +1°C° 0 mm 3 mps 764 mmHg 55%
    12:00 +2°C° 0 mm 3 mps 764 mmHg 58%
    13:00 +2°C° 0 mm 3 mps 763 mmHg 60%
    14:00 +2°C° 0 mm 3 mps 763 mmHg 64%
    15:00 +3°C° 0 mm 2 mps 763 mmHg 68%
    16:00 +3°C° 0 mm 2 mps 763 mmHg 71%
    17:00 +2°C° 0 mm 2 mps 763 mmHg 75%
    18:00 +1°C° 0 mm 2 mps 763 mmHg 78%
    19:00 -1°C° 0 mm 2 mps 763 mmHg 81%
    20:00 -1°C° 0 mm 2 mps 763 mmHg 82%
    21:00 -1°C° 0 mm 2 mps 763 mmHg 83%
    22:00 -1°C° 0 mm 2 mps 763 mmHg 83%
    23:00 -1°C° 0 mm 2 mps 763 mmHg 83%

    25 February, Monday

    Time Temperature Precipitation Wind Pressure Humidity
    00:00 -1°C° 0 mm 2 mps 762 mmHg 82%
    01:00 -1°C° 0 mm 2 mps 762 mmHg 82%
    02:00 -1°C° 0 mm 2 mps 762 mmHg 82%
    03:00 -1°C° 0 mm 3 mps 762 mmHg 82%
    04:00 -1°C° 0 mm 3 mps 762 mmHg 82%
    05:00 -1°C° 0 mm 3 mps 761 mmHg 83%
    06:00 -1°C° 0 mm 3 mps 761 mmHg 84%
    07:00 -1°C° 0 mm 3 mps 761 mmHg 85%
    08:00 -1°C° 0 mm 4 mps 761 mmHg 84%
    09:00 +1°C° 0 mm 4 mps 762 mmHg 82%
    10:00 +2°C° 0 mm 5 mps 762 mmHg 81%
    11:00 +3°C° 0 mm 5 mps 762 mmHg 75%
    12:00 +5°C° 0 mm 5 mps 762 mmHg 69%
    13:00 +5°C° 0 mm 6 mps 762 mmHg 63%
    14:00 +5°C° 0 mm 5 mps 762 mmHg 66%
    15:00 +3°C° 0 mm 5 mps 761 mmHg 69%
    16:00 +3°C° 0 mm 4 mps 761 mmHg 72%
    17:00 +1°C° 0 mm 4 mps 762 mmHg 77%
    18:00 0°C° 0 mm 5 mps 762 mmHg 82%
    19:00 -1°C° 0 mm 5 mps 762 mmHg 87%
    20:00 -1°C° 0 mm 5 mps 762 mmHg 87%
    21:00 -1°C° 0 mm 5 mps 762 mmHg 88%
    22:00 -1°C° 0 mm 5 mps 762 mmHg 88%
    23:00 -1°C° 0 mm 4 mps 762 mmHg 89%
    Show more